FW4219 Weather Reports


time (UTC)temp
C
wind
direction
speed
KPH
gust
KPH
rain 1hr
cm
rain 24hr
cm
rain mn
cm
humidity
%
barometer
mb
20260509134841 15 247 3.2 9.7 0.00 0.00 0.00 100 1006.5
20260509133939 15 243 4.8 9.7 0.00 0.00 0.00 100 1006.8
20260509132942 14 231 6.4 12.9 0.00 0.00 0.00 100 1007.1
20260509131940 14 239 6.4 12.9 0.00 0.00 0.00 100 1007.1
20260509130940 14 225 4.8 9.7 0.00 0.00 0.00 100 1006.8
20260509125942 13 220 6.4 16.1 0.00 0.00 0.00 100 1006.8
20260509124942 13 253 6.4 9.7 0.00 0.00 0.00 100 1006.8
20260509123943 13 220 4.8 11.3 0.00 0.00 0.00 100 1006.8
20260509121941 13 216 9.7 19.3 0.00 0.00 0.00 100 1006.5
20260509121039 12 223 6.4 12.9 0.00 0.00 0.00 100 1006.8
20260509120940 12 235 6.4 12.9 0.00 0.00 0.00 100 1006.8
20260509115940 12 211 9.7 14.5 0.00 0.00 0.00 100 1006.8
20260509114939 12 216 4.8 8.0 0.00 0.00 0.00 100 1006.7
20260509112942 12 198 4.8 9.7 0.00 0.00 0.00 100 1006.5
20260509111941 12 270 3.2 6.4 0.00 0.00 0.00 100 1006.5
20260509111040 12 220 8.0 14.5 0.00 0.00 0.00 100 1006.1
20260509110040 12 206 6.4 9.7 0.00 0.00 0.00 100 1006.1
20260509105039 12 214 6.4 16.1 0.00 0.00 0.00 100 1006.1
20260509103139 12 207 6.4 12.9 0.00 0.00 0.00 100 1006.1
20260509103040 12 194 6.4 11.3 0.00 0.00 0.00 100 1006.1
20260509102041 12 214 8.0 17.7 0.00 0.00 0.00 100 1006.4
20260509101040 12 217 4.8 8.0 0.00 0.00 0.00 100 1006.5
20260509100140 12 209 3.2 6.4 0.00 0.00 0.00 100 1006.5
20260509095239 12 212 3.2 4.8 0.00 0.00 0.00 100 1006.5
20260509094239 12 202 0.0 3.2 0.00 0.00 0.00 100 1006.5
20260509093242 12 241 3.2 6.4 0.00 0.00 0.00 100 1006.8
20260509092241 12 210 3.2 6.4 0.00 0.00 0.00 100 1006.8
20260509091241 12 209 4.8 9.7 0.00 0.00 0.00 100 1006.8
20260509090241 12 228 6.4 9.7 0.00 0.00 0.00 100 1007.1
20260509085240 12 225 3.2 6.4 0.00 0.00 0.00 100 1007.1
20260509083339 12 228 1.6 4.8 0.00 0.00 0.00 100 1007.1
20260509082439 12 221 3.2 6.4 0.00 0.00 0.00 100 1006.8
20260509081440 12 238 3.2 4.8 0.00 0.00 0.00 100 1006.9
20260509080456 12 204 6.4 17.7 0.00 0.00 0.00 100 1006.8
20260509075539 12 225 1.6 4.8 0.00 0.00 0.00 100 1007.1
20260509075440 12 225 3.2 6.4 0.00 0.00 0.00 100 1007.1
20260509074539 12 223 4.8 9.7 0.00 0.00 0.00 100 1007.1
20260509073540 12 225 3.2 6.4 0.00 0.00 0.00 100 1007.1
20260509072541 12 252 3.2 6.4 0.00 0.00 0.00 100 1007.2
20260509071540 12 225 1.6 6.4 0.00 0.00 0.00 100 1007.5
20260509071440 12 225 4.8 11.3 0.00 0.00 0.00 100 1007.5
20260509070438 12 241 1.6 4.8 0.00 0.00 0.00 100 1007.8
20260509065439 12 247 0.0 3.2 0.00 0.00 0.00 100 1007.6
20260509063438 13 217 3.2 9.7 0.00 0.00 0.00 100 1007.8
20260509062439 13 214 3.2 8.0 0.00 0.00 0.00 100 1008.1
20260509060538 13 215 6.4 16.1 0.00 0.00 0.00 100 1008.2
20260509055540 13 216 6.4 12.9 0.00 0.00 0.00 100 1008.5
20260509054540 13 225 3.2 4.8 0.00 0.00 0.00 100 1008.4
20260509052540 13 204 1.6 8.0 0.00 0.00 0.00 100 1008.5
20260509052441 13 209 4.8 11.3 0.00 0.00 0.00 100 1008.5
20260509051340 13 216 4.8 11.3 0.00 0.00 0.00 100 1008.5
20260509050239 13 196 6.4 12.9 0.00 0.00 0.00 100 1008.5
20260509045252 13 210 4.8 9.7 0.00 0.00 0.00 100 1008.5
20260509044351 13 211 9.7 12.9 0.00 0.00 0.00 100 1008.5
20260509043353 13 218 4.8 12.9 0.00 0.00 0.00 100 1008.5
20260509042351 13 225 3.2 6.4 0.00 0.00 0.00 100 1008.5
20260509041449 13 210 9.7 19.3 0.00 0.00 0.00 100 1008.5
20260509040451 13 202 8.0 17.7 0.00 0.00 0.00 100 1008.5
20260509034551 13 190 4.8 9.7 0.00 0.00 0.00 100 1008.5
20260509033552 13 187 3.2 9.7 0.00 0.00 0.00 100 1008.5
20260509032553 12 225 4.8 8.0 0.00 0.00 0.00 100 1008.6
20260509031651 12 202 3.2 4.8 0.00 0.00 0.00 100 1008.5
20260509030651 12 202 3.2 4.8 0.00 0.00 0.00 100 1008.8
20260509025650 12 180 3.2 6.4 0.00 0.00 0.00 100 1008.8
20260509024653 12 180 1.6 6.4 0.00 0.00 0.00 100 1008.8
20260509023653 12 90 0.0 1.6 0.00 0.00 0.00 100 1008.8
20260509021651 12 90 0.0 3.2 0.00 0.00 0.00 100 1008.8
20260509021551 12 90 0.0 3.2 0.00 0.00 0.00 100 1008.8
20260509015552 13 90 1.6 4.8 0.00 0.00 0.00 100 1008.8
20260509014552 13 90 0.0 3.2 0.00 0.00 0.00 100 1008.8
20260509012552 13 90 0.0 3.2 0.00 0.00 0.00 100 1008.8
20260509011553 13 134 3.2 4.8 0.00 0.00 0.00 100 1008.8
20260509010651 13 114 3.2 4.8 0.00 0.00 0.00 100 1008.8
20260509005652 14 135 1.6 3.2 0.00 0.00 0.00 100 1008.8
20260509003649 15 135 1.6 6.4 0.00 0.00 0.00 100 1008.8
20260509002550 15 108 4.8 8.0 0.00 0.00 0.00 100 1008.8
20260509001552 15 154 3.2 4.8 0.00 0.00 0.00 100 1009.1
20260508234651 15 90 1.6 3.2 0.00 0.00 0.00 100 1009.2
20260508232652 15 83 1.6 4.8 0.00 0.00 0.00 100 1009.2
20260508231749 16 128 1.6 3.2 0.00 0.00 0.00 100 1009.2
20260508230753 16 180 0.0 0.0 0.00 0.00 0.00 100 1009.2
20260508225752 16 90 0.0 3.2 0.00 0.00 0.00 100 1009.2
20260508224849 16 90 0.0 3.2 0.00 0.00 0.00 100 1009.2
20260508223851 15 87 3.2 6.4 0.00 0.00 0.00 100 1009.2
20260508222751 16 112 1.6 6.4 0.00 0.00 0.00 100 1009.2
20260508221753 16 120 1.6 4.8 0.00 0.00 0.00 100 1009.2
20260508221652 16 122 3.2 6.4 0.00 0.00 0.00 100 1009.2
20260508220751 16 153 3.2 4.8 0.00 0.00 0.00 100 1009.2
20260508215752 16 135 1.6 4.8 0.00 0.03 0.00 100 1009.6
20260508214752 17 67 1.6 3.2 0.00 0.08 0.00 100 1009.6
20260508213751 17 134 4.8 8.0 0.00 0.08 0.00 100 1009.3
20260508211751 18 97 3.2 6.4 0.00 0.08 0.00 100 1009.4
20260508210754 18 95 4.8 9.7 0.00 0.08 0.00 100 1009.3
20260508205849 18 119 3.2 6.4 0.00 0.08 0.00 100 1009.4
20260508205749 18 109 3.2 6.4 0.00 0.08 0.00 100 1009.3
20260508204752 18 90 4.8 8.0 0.00 0.08 0.00 100 1009.6
20260508203751 20 105 6.4 11.3 0.00 0.08 0.00 100 1009.6
20260508202749 20 130 6.4 11.3 0.00 0.08 0.00 100 1009.6
20260508201749 20 225 0.0 0.0 0.00 0.08 0.00 100 1009.9
20260508200849 19 112 4.8 11.3 0.00 0.08 0.00 100 1009.9
20260508195850 20 131 6.4 9.7 0.00 0.08 0.00 100 1010.3
20260508194853 20 128 4.8 9.7 0.00 0.08 0.00 100 1010.3
20260508193950 20 185 6.4 11.3 0.00 0.08 0.00 100 1010.3
20260508192950 19 117 3.2 6.4 0.00 0.08 0.00 100 1010.3
20260508191951 18 111 3.2 4.8 0.00 0.08 0.00 100 1010.6
20260508190950 18 125 3.2 6.4 0.00 0.08 0.00 100 1010.7
20260508185951 18 107 4.8 8.0 0.00 0.08 0.00 100 1011.0
20260508184951 18 157 0.0 1.6 0.00 0.08 0.00 100 1011.0
20260508183951 18 67 1.6 3.2 0.00 0.08 0.00 100 1011.1
20260508183049 19 191 1.6 6.4 0.00 0.08 0.00 100 1011.1
20260508182052 20 90 0.0 3.2 0.00 0.08 0.00 100 1011.3
20260508181148 19 96 1.6 4.8 0.00 0.08 0.00 100 1011.3
20260508180151 19 49 0.0 4.8 0.00 0.08 0.00 100 1011.6
20260508175152 18 45 0.0 0.0 0.00 0.08 0.00 100 1012.0
20260508174151 19 191 1.6 8.0 0.00 0.08 0.00 100 1011.8
20260508173151 18 112 4.8 12.9 0.00 0.08 0.00 100 1012.0
20260508171152 18 98 0.0 3.2 0.00 0.08 0.00 100 1012.3
20260508170152 18 218 4.8 9.7 0.00 0.08 0.00 100 1012.7
20260508165250 18 114 3.2 6.4 0.00 0.08 0.00 100 1012.7
20260508163250 18 106 0.0 4.8 0.00 0.08 0.00 100 1013.0
20260508162251 18 90 0.0 3.2 0.00 0.08 0.00 100 1013.0
20260508160351 18 183 1.6 4.8 0.00 0.08 0.00 100 1013.0
20260508155350 17 90 0.0 0.0 0.00 0.08 0.00 100 1013.3
20260508154351 17 135 0.0 3.2 0.00 0.08 0.00 100 1013.3
20260508153350 16 174 4.8 8.0 0.00 0.08 0.00 100 1013.7
20260508152351 16 93 4.8 6.4 0.00 0.08 0.00 100 1013.7
20260508151450 16 170 4.8 6.4 0.00 0.08 0.00 100 1013.7
20260508144449 15 196 1.6 3.2 0.00 0.08 0.00 100 1013.7
20260508141450 12 135 0.0 3.2 0.00 0.08 0.00 100 1014.1
20260508141351 12 135 0.0 3.2 0.00 0.08 0.00 100 1014.1
20260508140352 12 135 1.6 3.2 0.00 0.08 0.00 100 1014.1